Flag for U.S.A. Weather past 2 weeks in Toledo, Ohio, U.S.A.

Now
79 °F

Mostly cloudy.


Feels Like: 81 °F
Forecast: 70 / 82 °F
Wind: 3 mph from Southwest

Location: Toledo Suburban Airport

Current Time: Aug 22, 2014 at 12:14:39 PM

Latest Report: Aug 22, 2014 at 11:35 AM


Visibility: 10 mi

Pressure: 29.98 "Hg

Humidity: 74%

Dew point: 70 °F

Location of ToledoLocation

Historic Weather in Toledo — Graph

°F

Toledo temperature yesterday

Maximum temperature yesterday: 81 °F (at 1:55 PM)
Minimum temperature yesterday: 64 °F (at 5:15 AM)
Average temperature yesterday: 73 °F

Past Weeks' High & Low Weather Summary

 TemperatureHumidityPressure
High86 °F (Aug 19, 3:55 PM)94% (Aug 8, 5:35 AM)30.16 "Hg (Aug 8, 5:35 AM)
Low46 °F (Aug 15, 6:15 AM)30% (Aug 7, 6:35 PM)29.71 "Hg (Aug 12, 4:35 AM)
Average70 °F74%29.96 "Hg
* Reported Aug 7 11:15 AM — Aug 22 11:15 AM, Toledo, Weather by CustomWeather, © 2014

Note: Actual official high and low records may vary slightly from our data, if they occured in-between our weather recording intervals... More about our weather records

Advertising

Toledo weather history for previous 24 hours

 ConditionsComfort  
Time TempWeatherWind HumidityBarometerVisibility
11:15 AM
Aug 22
79 °FMostly cloudy.3 mph74%29.98 "Hg10 mi
10:55 AM79 °FOvercast.3 mph74%29.98 "Hg10 mi
10:34 AM77 °FOvercast.3 mph79%29.98 "Hg10 mi
10:15 AM77 °FOvercast.No wind79%29.98 "Hg10 mi
9:55 AM77 °FPartly sunny.3 mph79%29.98 "Hg10 mi
9:35 AM77 °FScattered clouds.No wind79%29.98 "Hg7 mi
9:15 AM75 °FSunny.No wind83%29.99 "Hg7 mi
8:55 AM73 °FScattered clouds.No wind89%29.99 "Hg5 mi
8:35 AM73 °FFog.No wind89%29.99 "Hg5 mi
7:55 AM72 °FFog.No wind94%29.98 "Hg4 mi
7:35 AM72 °FFog.No wind94%29.98 "Hg4 mi
7:15 AM72 °FFog.3 mph94%29.98 "Hg4 mi
6:55 AM72 °FFog.3 mph94%29.99 "Hg5 mi
6:35 AM72 °FMostly cloudy.No wind88%29.98 "Hg7 mi
6:15 AM72 °FOvercast.No wind88%29.97 "Hg7 mi
5:54 AM72 °FOvercast.No wind94%29.97 "Hg7 mi
5:35 AM72 °FOvercast.5 mph88%29.97 "Hg7 mi
5:15 AM72 °FLow clouds.3 mph88%29.95 "Hg7 mi
4:54 AM72 °FLow clouds.5 mph88%29.95 "Hg7 mi
4:35 AM70 °FLow clouds.3 mph94%29.95 "Hg7 mi
4:15 AM70 °FMostly cloudy.No wind94%29.95 "Hg7 mi
3:55 AM70 °FPassing clouds.3 mph94%29.95 "Hg7 mi
3:35 AM70 °FPassing clouds.No wind94%29.95 "Hg7 mi
3:15 AM70 °FPartly cloudy.No wind94%29.95 "Hg7 mi
2:55 AM70 °FPartly cloudy.No wind94%29.96 "Hg7 mi
2:35 AM70 °FFog.No wind94%29.96 "Hg5 mi
1:55 AM70 °FPassing clouds.No wind94%29.98 "Hg7 mi
1:35 AM72 °FPassing clouds.No wind88%29.99 "Hg10 mi
1:15 AM72 °FMostly cloudy.No wind88%29.99 "Hg10 mi
12:54 AM73 °FMostly cloudy.No wind89%29.99 "Hg10 mi
12:35 AM73 °FOvercast.No wind89%29.99 "Hg10 mi
12:15 AM73 °FMostly cloudy.3 mph89%29.99 "Hg10 mi
11:55 PM
Aug 21
73 °FOvercast.No wind89%29.99 "Hg10 mi
11:35 PM73 °FOvercast.3 mph89%30.00 "Hg10 mi
11:15 PM73 °FOvercast.3 mph89%29.99 "Hg10 mi
10:55 PM75 °FOvercast.5 mph83%30.00 "Hg10 mi
10:34 PM73 °FPassing clouds.3 mph89%29.98 "Hg10 mi
10:15 PM73 °FPassing clouds.No wind89%29.98 "Hg10 mi
9:55 PM73 °FPassing clouds.No wind89%29.98 "Hg10 mi
9:35 PM75 °FPassing clouds.No wind78%29.98 "Hg10 mi
9:15 PM77 °FOvercast.3 mph74%29.98 "Hg10 mi
8:55 PM77 °FPartly sunny.3 mph74%29.98 "Hg10 mi
8:34 PM77 °FSunny.3 mph74%29.98 "Hg10 mi
8:15 PM77 °FSunny.6 mph74%29.98 "Hg10 mi
7:55 PM77 °FSunny.7 mph79%29.98 "Hg10 mi
7:34 PM79 °FScattered clouds.6 mph74%29.98 "Hg10 mi
7:15 PM79 °FSunny.7 mph74%29.97 "Hg10 mi
6:55 PM79 °FScattered clouds.3 mph74%29.97 "Hg10 mi
6:35 PM79 °FScattered clouds.5 mph74%29.97 "Hg10 mi
6:15 PM79 °FScattered clouds.6 mph74%29.98 "Hg10 mi
5:55 PM79 °FScattered clouds.8 mph74%29.98 "Hg10 mi
5:35 PM81 °FScattered clouds.7 mph70%29.98 "Hg10 mi
5:15 PM81 °FScattered clouds.8 mph70%29.98 "Hg10 mi
4:55 PM79 °FBroken clouds.8 mph74%29.98 "Hg10 mi
4:34 PM79 °FBroken clouds.9 mph74%29.98 "Hg10 mi
4:15 PM81 °FBroken clouds.6 mph70%29.98 "Hg10 mi
3:55 PM81 °FMostly cloudy.6 mph70%29.98 "Hg10 mi
3:34 PM81 °FMostly cloudy.7 mph70%29.98 "Hg10 mi
3:15 PM81 °FBroken clouds.8 mph66%29.98 "Hg10 mi
2:55 PM81 °FSunny.5 mph66%29.97 "Hg10 mi
2:35 PM81 °FScattered clouds.6 mph66%29.98 "Hg10 mi
1:55 PM81 °FScattered clouds.6 mph66%29.99 "Hg10 mi
1:35 PM79 °FScattered clouds.8 mph70%30.00 "Hg10 mi
1:15 PM79 °FScattered clouds.7 mph70%30.00 "Hg10 mi
12:55 PM79 °FBroken clouds.9 mph74%30.01 "Hg10 mi
12:35 PM79 °FMostly cloudy.5 mph74%30.01 "Hg10 mi
12:15 PM79 °FMostly cloudy.3 mph74%30.01 "Hg10 mi
Weather by CustomWeather, © 2014

See weather overviewHow to use our weather pages